When you browse on this site, cookies collect data to enhance your experience and personalize the content and advertising you see.
Visit our Privacy Policy to learn more. By continuing to use the site, you agree to this use of cookies and data.
  • En España
  • Lista de países
  • Para 7 días
  • Temperatura del agua
  • El tiempo en el mapa
  • Informadores
  • user-avatar
    Iniciar sesión

    Tiempo cada hora Livingstone

    Hoy, 22 Octubre, Martes

    Tiempo Temperatura Precipitaciones Viento Presión Humedad
    00:00 +28°C° 0 mm 1 mps 679 mmHg 19%
    01:00 +27°C° 0 mm 1 mps 679 mmHg 20%
    02:00 +27°C° 0 mm 1 mps 678 mmHg 23%
    03:00 +26°C° 0 mm 1 mps 679 mmHg 23%
    04:00 +26°C° 0 mm 1 mps 679 mmHg 24%
    05:00 +23°C° 0 mm 0 mps 679 mmHg 24%
    06:00 +28°C° 0 mm 1 mps 680 mmHg 21%
    07:00 +31°C° 0 mm 2 mps 681 mmHg 18%
    08:00 +35°C° 0 mm 3 mps 682 mmHg 14%
    09:00 +38°C° 0 mm 3 mps 682 mmHg 12%
    10:00 +40°C° 0 mm 3 mps 682 mmHg 11%
    11:00 +44°C° 0 mm 3 mps 682 mmHg 9%
    12:00 +44°C° 0 mm 3 mps 681 mmHg 9%
    13:00 +45°C° 0 mm 3 mps 680 mmHg 9%
    14:00 +45°C° 0 mm 3 mps 680 mmHg 9%
    15:00 +44°C° 0 mm 3 mps 679 mmHg 9%
    16:00 +44°C° 0 mm 3 mps 679 mmHg 10%
    17:00 +43°C° 0 mm 4 mps 678 mmHg 10%
    18:00 +39°C° 0 mm 3 mps 678 mmHg 12%
    19:00 +37°C° 0 mm 3 mps 678 mmHg 14%
    20:00 +34°C° 0 mm 2 mps 678 mmHg 16%
    21:00 +32°C° 0 mm 2 mps 678 mmHg 17%
    22:00 +31°C° 0 mm 2 mps 678 mmHg 18%
    23:00 +30°C° 0 mm 2 mps 679 mmHg 20%

    Mañana, 23 Octubre, Miércoles

    Tiempo Temperatura Precipitaciones Viento Presión Humedad
    00:00 +30°C° 0 mm 2 mps 679 mmHg 20%
    01:00 +30°C° 0 mm 2 mps 678 mmHg 21%
    02:00 +29°C° 0 mm 2 mps 678 mmHg 21%
    03:00 +29°C° 0 mm 3 mps 679 mmHg 21%
    04:00 +29°C° 0 mm 3 mps 679 mmHg 21%
    05:00 +29°C° 0 mm 4 mps 679 mmHg 21%
    06:00 +32°C° 0 mm 4 mps 680 mmHg 22%
    07:00 +33°C° 0 mm 5 mps 681 mmHg 23%
    08:00 +35°C° 0 mm 6 mps 682 mmHg 24%
    09:00 +38°C° 0 mm 6 mps 682 mmHg 20%
    10:00 +40°C° 0 mm 5 mps 682 mmHg 17%
    11:00 +42°C° 0 mm 5 mps 682 mmHg 14%
    12:00 +42°C° 0 mm 5 mps 681 mmHg 14%
    13:00 +43°C° 0 mm 4 mps 680 mmHg 13%
    14:00 +43°C° 0 mm 3 mps 679 mmHg 12%
    15:00 +42°C° 0 mm 3 mps 679 mmHg 13%
    16:00 +42°C° 0 mm 3 mps 679 mmHg 13%
    17:00 +42°C° 0 mm 3 mps 679 mmHg 13%
    18:00 +39°C° 0 mm 3 mps 679 mmHg 17%
    19:00 +36°C° 0 mm 3 mps 679 mmHg 21%
    20:00 +33°C° 0 mm 3 mps 679 mmHg 25%
    21:00 +32°C° 0 mm 2 mps 679 mmHg 26%
    22:00 +31°C° 0 mm 2 mps 679 mmHg 28%
    23:00 +30°C° 0 mm 1 mps 679 mmHg 29%

    Pasado mañana, 24 Octubre, Jueves

    Tiempo Temperatura Precipitaciones Viento Presión Humedad
    00:00 +30°C° 0 mm 2 mps 679 mmHg 29%
    01:00 +30°C° 0 mm 2 mps 679 mmHg 30%
    02:00 +29°C° 0 mm 2 mps 679 mmHg 30%
    03:00 +29°C° 0 mm 2 mps 679 mmHg 30%
    04:00 +28°C° 0 mm 2 mps 679 mmHg 31%
    05:00 +28°C° 0 mm 1 mps 679 mmHg 31%
    06:00 +30°C° 0 mm 2 mps 680 mmHg 28%
    07:00 +33°C° 0 mm 3 mps 681 mmHg 24%
    08:00 +35°C° 0 mm 4 mps 682 mmHg 21%
    09:00 +38°C° 0 mm 3 mps 682 mmHg 18%
    10:00 +40°C° 0 mm 3 mps 682 mmHg 15%
    11:00 +43°C° 0 mm 3 mps 683 mmHg 13%
    12:00 +44°C° 0 mm 3 mps 682 mmHg 12%
    13:00 +44°C° 0 mm 3 mps 681 mmHg 12%
    14:00 +43°C° 0 mm 2 mps 680 mmHg 11%
    15:00 +43°C° 0 mm 3 mps 679 mmHg 12%
    16:00 +43°C° 0 mm 3 mps 679 mmHg 12%
    17:00 +42°C° 0 mm 4 mps 679 mmHg 13%
    18:00 +38°C° 0 mm 3 mps 679 mmHg 15%
    19:00 +36°C° 0 mm 3 mps 679 mmHg 17%
    20:00 +34°C° 0 mm 2 mps 679 mmHg 19%
    21:00 +32°C° 0 mm 2 mps 679 mmHg 18%
    22:00 +31°C° 0 mm 1 mps 679 mmHg 18%
    23:00 +30°C° 0 mm 1 mps 679 mmHg 18%

    25 Octubre, Viernes

    Tiempo Temperatura Precipitaciones Viento Presión Humedad
    00:00 +30°C° 0 mm 1 mps 679 mmHg 18%
    01:00 +30°C° 0 mm 2 mps 679 mmHg 19%
    02:00 +30°C° 0 mm 2 mps 680 mmHg 19%
    03:00 +30°C° 0 mm 2 mps 680 mmHg 21%
    04:00 +29°C° 0 mm 2 mps 680 mmHg 22%
    05:00 +28°C° 0 mm 1 mps 681 mmHg 24%
    06:00 +30°C° 0 mm 2 mps 681 mmHg 23%
    07:00 +33°C° 0 mm 3 mps 682 mmHg 22%
    08:00 +35°C° 0 mm 4 mps 683 mmHg 21%
    09:00 +37°C° 0 mm 4 mps 683 mmHg 19%
    10:00 +40°C° 0 mm 4 mps 683 mmHg 18%
    11:00 +42°C° 0 mm 4 mps 683 mmHg 16%
    12:00 +43°C° 0 mm 4 mps 682 mmHg 16%
    13:00 +43°C° 0 mm 3 mps 681 mmHg 15%
    14:00 +43°C° 0 mm 3 mps 680 mmHg 15%
    15:00 +42°C° 0 mm 3 mps 680 mmHg 15%
    16:00 +42°C° 0 mm 3 mps 680 mmHg 16%
    17:00 +40°C° 0 mm 2 mps 679 mmHg 16%
    18:00 +38°C° 0 mm 2 mps 680 mmHg 19%
    19:00 +36°C° 0 mm 2 mps 680 mmHg 21%
    20:00 +33°C° 0 mm 1 mps 680 mmHg 24%
    21:00 +32°C° 0 mm 1 mps 680 mmHg 25%
    22:00 +31°C° 0 mm 1 mps 680 mmHg 26%
    23:00 +30°C° 0 mm 1 mps 680 mmHg 28%

    26 Octubre, Sábado

    Tiempo Temperatura Precipitaciones Viento Presión Humedad
    00:00 +29°C° 0 mm 1 mps 680 mmHg 29%
    01:00 +28°C° 0 mm 1 mps 679 mmHg 30%
    02:00 +27°C° 0 mm 1 mps 679 mmHg 31%
    03:00 +27°C° 0 mm 1 mps 679 mmHg 32%
    04:00 +26°C° 0 mm 1 mps 680 mmHg 32%
    05:00 +25°C° 0 mm 1 mps 680 mmHg 33%
    06:00 +28°C° 0 mm 1 mps 680 mmHg 29%
    07:00 +30°C° 0 mm 2 mps 681 mmHg 25%
    08:00 +34°C° 0 mm 3 mps 682 mmHg 22%
    09:00 +37°C° 0 mm 3 mps 682 mmHg 19%
    10:00 +40°C° 0 mm 3 mps 682 mmHg 16%
    11:00 +44°C° 0 mm 3 mps 682 mmHg 13%
    12:00 +44°C° 0 mm 3 mps 682 mmHg 12%
    13:00 +45°C° 0 mm 3 mps 681 mmHg 11%
    14:00 +46°C° 0 mm 3 mps 680 mmHg 10%
    15:00 +45°C° 0 mm 3 mps 680 mmHg 11%
    16:00 +44°C° 0 mm 3 mps 679 mmHg 12%
    17:00 +43°C° 0 mm 3 mps 679 mmHg 13%
    18:00 +39°C° 0 mm 3 mps 679 mmHg 15%
    19:00 +37°C° 0 mm 2 mps 679 mmHg 16%
    20:00 +34°C° 0 mm 2 mps 679 mmHg 18%
    21:00 +32°C° 0 mm 2 mps 679 mmHg 19%
    22:00 +31°C° 0 mm 2 mps 679 mmHg 20%
    23:00 +30°C° 0 mm 2 mps 679 mmHg 20%

    27 Octubre, Domingo

    Tiempo Temperatura Precipitaciones Viento Presión Humedad
    00:00 +30°C° 0 mm 1 mps 678 mmHg 21%
    01:00 +29°C° 0 mm 1 mps 678 mmHg 22%
    02:00 +26°C° 0 mm 0 mps 678 mmHg 23%
    03:00 +25°C° 0 mm 0 mps 678 mmHg 25%
    04:00 +27°C° 0 mm 1 mps 678 mmHg 27%
    05:00 +26°C° 0 mm 1 mps 678 mmHg 29%
    06:00 +29°C° 0 mm 2 mps 679 mmHg 25%
    07:00 +31°C° 0 mm 3 mps 680 mmHg 22%
    08:00 +35°C° 0 mm 3 mps 681 mmHg 19%
    09:00 +38°C° 0 mm 3 mps 681 mmHg 17%
    10:00 +40°C° 0 mm 3 mps 681 mmHg 14%
    11:00 +44°C° 0 mm 3 mps 681 mmHg 12%
    12:00 +44°C° 0 mm 3 mps 680 mmHg 12%
    13:00 +43°C° 0 mm 3 mps 679 mmHg 12%
    14:00 +43°C° 0 mm 3 mps 679 mmHg 13%
    15:00 +43°C° 0 mm 3 mps 678 mmHg 13%
    16:00 +41°C° 0 mm 2 mps 678 mmHg 14%
    17:00 +41°C° 0 mm 2 mps 677 mmHg 14%
    18:00 +38°C° 0 mm 2 mps 677 mmHg 17%
    19:00 +34°C° 0 mm 1 mps 677 mmHg 20%
    20:00 +32°C° 0 mm 1 mps 677 mmHg 23%
    21:00 +31°C° 0 mm 1 mps 677 mmHg 24%
    22:00 +30°C° 0 mm 1 mps 677 mmHg 25%
    23:00 +30°C° 0 mm 1 mps 678 mmHg 25%

    28 Octubre, Lunes

    Tiempo Temperatura Precipitaciones Viento Presión Humedad
    00:00 +29°C° 0 mm 1 mps 677 mmHg 26%
    01:00 +29°C° 0 mm 1 mps 677 mmHg 27%
    02:00 +28°C° 0 mm 1 mps 677 mmHg 27%
    03:00 +28°C° 0 mm 1 mps 677 mmHg 28%
    04:00 +27°C° 0 mm 1 mps 677 mmHg 29%
    05:00 +27°C° 0 mm 1 mps 677 mmHg 29%
    06:00 +29°C° 0 mm 1 mps 678 mmHg 25%
    07:00 +32°C° 0 mm 2 mps 679 mmHg 21%
    08:00 +35°C° 0 mm 3 mps 679 mmHg 17%
    09:00 +38°C° 0 mm 3 mps 680 mmHg 15%
    10:00 +40°C° 0 mm 3 mps 680 mmHg 13%
    11:00 +44°C° 0 mm 4 mps 680 mmHg 11%
    12:00 +45°C° 0 mm 3 mps 679 mmHg 10%
    13:00 +46°C° 0 mm 3 mps 679 mmHg 9%
    14:00 +47°C° 0 mm 2 mps 678 mmHg 8%
    15:00 +46°C° 0 mm 2 mps 678 mmHg 8%
    16:00 +45°C° 0 mm 2 mps 677 mmHg 9%
    17:00 +43°C° 0 mm 1 mps 676 mmHg 9%
    18:00 +40°C° 0 mm 1 mps 676 mmHg 12%
    19:00 +36°C° 0 mm 1 mps 677 mmHg 14%
    20:00 +33°C° 0 mm 1 mps 677 mmHg 17%
    21:00 +33°C° 0 mm 1 mps 677 mmHg 17%
    22:00 +32°C° 0 mm 1 mps 677 mmHg 17%
    23:00 +31°C° 0 mm 1 mps 677 mmHg 18%
    Mostrar más